{"data":{"norad_id":64335,"epoch":"2026-05-25T03:14:25.671840Z","epoch_age_seconds":63249,"freshness":"FRESH","line1":"1 64335U 25124U   26145.13501935  .00019878  00000+0  72940-3 0  9997","line2":"2 64335  43.0039  49.8160 0001757 255.5598 104.5059 15.27603527 53470","mean_motion":15.27603527,"eccentricity":0.0001757,"inclination_deg":43.0039,"raan_deg":49.816,"arg_perigee_deg":255.5598,"mean_anomaly_deg":104.5059,"bstar":0.0007294,"rev_number":5347,"period_min":94.265296888124,"perigee_km":481.77315062255,"apogee_km":484.18414666149,"semimajor_km":6861.115648642,"source":"CELESTRAK","updated_at":"2026-05-25T13:38:20.398326Z"}}